sat.trackr.live / text

‹ back to catalog

STARLINK-32017

NORAD 60032 · 2024-111S

PAYLOAD ACTIVE UNKNOWN

§ Identity

Operator
Country
US
Launch date
2024-06-08
Launch site
AFETR
Launch vehicle
Mass (kg)
RCS (m²)

Purposes: comms

External: N2YO · Heavens-Above · Gunter

§ Orbital elements

Epoch: 2026-05-25T02:43:02.627040Z

Period
94.11 min
Inclination
53.1604°
Eccentricity
0.0001265
Mean motion
15.30194940 rev/d
Perigee alt
474.4 km
Apogee alt
476.1 km
Semi-major
6,853.4 km
B*
2.8706e-5
RAAN
80.7109°
Arg perigee
89.6599°
Mean anomaly
270.4547°
Rev number
11,073

§ Raw data

STARLINK-320171 60032U 24111S   26145.11322485  .00000491  00000+0  28706-4 0  99942 60032  53.1604  80.7109 0001265  89.6599 270.4547 15.30194940110734

JSON: /api/v1/satellites/60032 · /tle

For live sub-satellite position, see the globe view (requires WebGL).

§ Visibility from observer

Set your observer location to see the next 7 days of passes ≥ 10°. The values pass through the URL so the page stays shareable.

No JS? Fill the form by hand. The geolocation button needs JavaScript.